Location: Paderno d�Adda
(45.6667°N, 9.4333°E)
Time: 13:51:12
(UTC+00:00)

Terra - Pass Details

Date: 19 September 2020
Orbit: 701 x 703 km, 98.2° (Epoch: 29 October)

Event Time Altitude Azimuth Distance (km) Brightness Sun altitude
Exits shadow 21:02:18 21° 359° (N) 1,560 4.0 -34.8°
Drops below altitude 10° 21:03:55 10° 354° (N) 2,182 4.9 -35.0°
Sets 21:06:12 0° 350° (N) 3,105 5.9 -35.2°
